Overview Statistics Trail Chart Weather Telemetry Raw packets
 

This is the latest recevied weather packets stored in our database for station/object KCBM. If no packets are shown the sender has not sent any weather packets the latest 10 day(s).

<< 11 12 13 14 15 16 17 >>
Time Temp. Humidity Pressure Rain* Wind** Luminosity Snow
1788486207 26.67° C 83% 1012.9 hPa - - - -
1788485606 26.67° C 83% 1012.9 hPa - - - -
1788485005 26.67° C 83% 1012.9 hPa - - - -
1788484405 26.67° C 83% 1012.9 hPa - - - -
1788483806 26.67° C 88% 1012.5 hPa - - - -
1788483205 26.67° C 88% 1012.5 hPa - - - -
1788482605 26.67° C 88% 1012.5 hPa - - - -
1788482006 26.67° C 88% 1012.5 hPa - - - -
1788481406 26.67° C 88% 1012.5 hPa - - - -
1788480805 26.67° C 88% 1012.5 hPa - - - -
1788480204 27.78° C 78% 1012.5 hPa - - - -
1788479606 27.78° C 78% 1012.5 hPa - - - -
1788479002 27.78° C 78% 1012.5 hPa - - - -
1788478407 26.67° C 83% 1013.2 hPa - - - -
1788477803 26.67° C 83% 1013.2 hPa - - - -
1788477202 26.67° C 83% 1013.2 hPa - - - -
1788476605 27.78° C 78% 1013.5 hPa - - - -
1788476009 27.78° C 78% 1013.5 hPa - - - -
1788475408 33.89° C 49% 1012.5 hPa - - - -
1788474808 33.89° C 49% 1012.5 hPa - - - -
1788474211 35.56° C 44% 1011.9 hPa - - - -
1788473605 36.67° C 42% 1011.9 hPa - - - -
1788473006 36.67° C 42% 1011.9 hPa - - - -
1788472406 36.67° C 42% 1011.9 hPa - - - -
1788471814 37.78° C 37% 1011.9 hPa - - - -

* Rain since midnight (hover to see other rain measurements)
** Current wind speed in m/s (hover to see current wind gust speed)